www.pogodaiklimat.ru

Погода и климат >> Архив погоды >> Австралия >> Квинсленд >> Хьюэнден


ПОГОДА в Хьюэндене

  • Прогноз погоды в Хьюэндене
  • Монитор погоды в Хьюэндене

АРХИВ ПОГОДЫ в Хьюэндене

Время (UTC), дата Ветер
(напр.,м/с)
 
Видим.   Явления Облачность Т
(С)
Тd
(С)
f
(%)
Тe
(С)
Тes
(С)
Комфортность P
(гПа)
Po
(гПа)
Тmin
(С)
Tmax
(С)
R
(мм)
R24
(мм)
S
(см)
05 19.04 В 6 н/о 1/0 2000 м
[]
+30.1 +7.9 25 +29 +32 жарко 1013.5 977.7
08 19.04 ЮВ 5 н/о 1/0 2000 м
[]
+27.9 +7.7 28 +27 +27 жарко 1014.3 978.4
11 19.04 ЮВ 4 н/о н/о +23.7 +9.3 40 +25 +25 комфорт 1015.8 979.9
14 19.04 ЮВ 5 н/о н/о +22.2 +9.4 44 +24 +24 комфорт 1015.5 979.6 +31.5
17 19.04 В 3 н/о н/о +19.4 +9.0 51 +20 +20 1014.1 978.3
20 19.04 В 3 н/о н/о +17.5 +9.4 59 +18 +18 1014.7 978.8
23 19.04 В 6 н/о н/о +25.0 +12.9 47 +27 +27 жарко 1016.0 980.1
02 20.04 В 6 н/о н/о +29.2 +9.9 30 +29 +29 жарко 1014.4 978.5 +17.1
05 20.04 ЮВ 4 н/о н/о +30.8 +8.5 25 +30 +30 жарко 1011.8 976.0
08 20.04 В 4 н/о н/о +28.2 +8.5 29 +28 +28 жарко 1011.6 975.8
11 20.04 ЮВ 3 н/о н/о +23.1 +9.8 43 +25 +25 комфорт 1013.9 978.1
14 20.04 ЮВ 4 н/о н/о +22.3 +10.1 46 +24 +24 комфорт 1013.6 977.8 +31.5
17 20.04 ЮВ 4 н/о н/о +20.8 +9.4 48 +22 +22 комфорт 1012.1 976.3
20 20.04 В 4 н/о н/о +19.5 +10.8 57 +21 +21 комфорт 1013.2 977.4
23 20.04 СВ 5 н/о н/о +24.6 +14.4 53 +27 +27 жарко 1014.5 978.6
02 21.04 СВ 6 н/о н/о +29.7 +13.5 37 +31 +31 жарко 1013.2 977.4 +17.8
05 21.04 В 4 н/о 5/0 2000 м
[]
+31.9 +11.7 29 +32 +37 жарко 1010.7 975.0
08 21.04 ЮВ 4 н/о н/о +29.2 +11.3 33 +30 +30 жарко 1011.1 975.4
11 21.04 ЮВ 3 н/о 8/0
[]
+25.5 +12.4 44 +27 +27 жарко 1013.0 977.2
14 21.04 В 5 н/о н/о +24.4 +13.6 51 +27 +27 жарко 1012.9 977.1 +32.9
17 21.04 СВ 3 н/о н/о +22.7 +15.8 65 +27 +27 душно 1012.2 976.4
20 21.04 В 4 н/о н/о +20.4 +16.6 79 +24 +24 комфорт 1013.3 977.5
23 21.04 СВ 7 н/о 1/1 600 м
[]
+25.5 +16.9 59 +29 +30 душно 1015.0 979.1
02 22.04 В 5 н/о н/о +29.9 +15.2 41 +32 +32 жарко 1013.4 977.6 +19.8
05 22.04 В 4 н/о 5/0
[]
+32.2 +11.9 29 +32 +37 жарко 1011.1 975.4
08 22.04 ЮВ 5 н/о 10/0 2000 м
[]
+29.9 +9.9 29 +30 +30 жарко 1012.2 976.4
11 22.04 В 3 н/о 1/0
[]
+25.5 +12.4 44 +27 +27 жарко 1014.3 978.4
14 22.04 В 5 н/о н/о +24.2 +16.2 61 +28 +28 душно 1014.6 978.7 +33.3
17 22.04 В 7 н/о 6/6 600 м
[]
+22.4 +16.2 68 +27 +27 душно 1014.0 978.2
20 22.04 В 4 н/о н/о +20.8 +16.2 75 +24 +24 комфорт 1014.7 978.8
23 22.04 В 6 н/о 10/10 600 м
[]
+23.9 +16.4 63 +27 +27 жарко 1016.5 980.6
02 23.04 В 4 н/о 9/9 1000 м
[]
+27.2 +15.9 50 +30 +31 душно 1015.0 979.1 +20.3
05 23.04 В 6 н/о н/о +29.1 +14.5 41 +31 +31 жарко 1012.7 976.9
08 23.04 ЮВ 4 н/о н/о +27.6 +13.2 41 +29 +29 жарко 1013.0 977.2
11 23.04 ЮВ 3 н/о н/о +22.5 +13.8 58 +26 +26 жарко 1014.8 978.9
14 23.04 В 5 н/о н/о +23.1 +16.4 66 +28 +28 душно 1014.5 978.6 +30.0
17 23.04 В 3 н/о н/о +20.9 +16.9 78 +25 +25 комфорт 1013.7 977.9
20 23.04 В 3 н/о н/о +19.4 +16.4 83 +22 +22 комфорт 1014.4 978.5
23 23.04 В 4 н/о 9/9 300 м
[]
+24.1 +16.9 64 +28 +28 душно 1016.0 980.1
02 24.04 В 4 н/о 1/1 1000 м
[]
+28.6 +16.2 47 +32 +42 душно 1014.4 978.5 +19.0
05 24.04 ЮВ 6 н/о 10/10 1500 м
[]
+31.2 +13.0 33 +32 +32 жарко 1011.7 975.9
08 24.04 ЮВ 4 н/о 3/0
[]
+28.7 +12.6 37 +30 +30 жарко 1011.8 976.0
11 24.04 ЮВ 4 н/о 10/0
[]
+27.0 +14.4 46 +29 +29 жарко 1013.2 977.4
14 24.04 ЮВ 4 н/о 10/10 1500 м
[]
+25.1 +16.0 57 +28 +28 жарко 1013.0 977.2 +31.8
17 24.04 Ю 3 н/о 4/0
[]
+22.1 +16.8 72 +26 +26 душно 1011.9 976.1
20 24.04 В 5 н/о 10/10 600 м
[]
+22.8 +17.9 74 +28 +28 душно 1012.2 976.4
23 24.04 ЮВ 5 н/о 10/10 300 м
[]
+23.8 +17.8 69 +28 +28 душно 1013.1 977.3
02 25.04 ЮВ 5 н/о 9/9 600 м
[]
+27.3 +17.5 55 +31 +32 душно 1011.9 976.1 +22.1
05 25.04 ЮВ 3 н/о ливневой дождь 10/10 1000 м
[]
+28.9 +17.7 51 +33 +33 очень
душно
1009.2 973.5
08 25.04 ЮВ 5 н/о 10/10 1000 м
[]
+27.0 +18.0 58 +32 +32 очень
душно
1009.8 974.1
11 25.04 В 5 2500 м дождь {туман} 9/9 100 м
[]
+22.1 +19.8 87 +28 +28 душно 1012.4 976.6
14 25.04 ЮВ 5 н/о слаб. дождь {туман} 10/10 1000 м
[]
+22.1 +19.8 87 +28 +28 душно 1011.8 976.0 +29.9
17 25.04 Ю 3 7000 м ливневой дождь {туман} 10/10 200 м
[]
+21.9 +19.8 88 +28 +28 душно 1010.5 974.8
20 25.04 СВ 2 н/о {туман} 10/10 200 м
[]
+21.8 +19.4 86 +27 +27 душно 1011.0 975.3
23 25.04 В 4 н/о {туман} 10/10 300 м
[]
+24.5 +19.6 74 +30 +30 очень
душно
1012.9 977.1
02 26.04 СВ 4 н/о 6/6 600 м
[]
+27.7 +19.0 59 +33 +37 очень
душно
1010.9 975.2 +21.6
05 26.04 Ю 2 н/о 8/8 1500 м
[]
+29.8 +17.9 49 +34 +36 очень
душно
1009.5 973.8

 

Местоположение метеостанции Хьюэнден (Квинсленд, Австралия): широта -20.82 долгота 144.23 высота над уровнем моря 316 м.

В архиве по умолчанию представлена погода в Хьюэндене за последнюю неделю. Архивные данные за месяц целиком и за предыдущие месяцы, начиная с января 2011 года, Вы можете получить, выбрав интересующий диапазон дат из раскрывающегося списка и нажав кнопку "Ввод!".


*Определитесь, кто Вы:
робот инопланетянин человек

Внимание! Время в таблицах - всемирное. Для получения местного времени необходимо прибавить поправку, которая равна 10 ч.

Смотрите также архив погоды в соседних городах и на ближайших метеорологических станциях:

Погода в Ричмонд аэропорту (Квинсленд, Австралия) (117 км)
Погода в Уинтоне (Квинсленд, Австралия) (209 км)
Погода в Джулия Крик (Квинсленд, Австралия) (261 км)
Погода в Вулшеде (Квинсленд, Австралия) (286 км)
Погода в Джорджтауне (Квинсленд, Австралия) (290 км)
Погода в Лонгриче (Квинсленд, Австралия) (290 км)
Погода в Таунсвилле (Квинсленд, Австралия) (317 км)
Погода в Лусинде (Квинсленд, Австралия) (342 км)
Погода в Эре (Квинсленд, Австралия) (355 км)
Погода в Аэропорту Трепелл (Квинсленд, Австралия) (365 км)

Пояснения к столбцам:

Ветер - указаны скорость ветра в м/с - средняя за 10 мин, порывы в срок и между сроками (в фигурных скобках) и направление, откуда дует ветер: С - северный, СВ - северо-восточный, В - восточный, ЮВ - юго-восточный, Ю - южный, ЮЗ - юго-западный, З - западный, СЗ - северо-западный.
Видимость - горизонтальная дальность видимости в метрах или километрах. При видимости от 1 до 10 км при отсутствии осадков обычно наблюдается дымка, при ухудшении видимости до 1 км и менее - туман. В сухую погоду видимость может ухудшаться дымом, пылью или мглою.
Явления - указаны атмосферные явления, наблюдавшиеся в срок или в последний час перед сроком; фигурными скобками обозначены явления, наблюдавшиеся между сроками (за 1-3 часа до срока); квадратными скобками обозначены град или гололедные отложения с указанием их диаметра в мм.
Облачность - указаны через наклонную черту общая и нижняя облачность в баллах и высота нижней границы облаков в метрах; квадратными скобками обозначены формы облаков: Ci - перистые, Cs - перисто-слоистые, Cc - перисто-кучевые, Ac - высококучевые, As - высокослоистые, Sc - слоисто-кучевые, Ns - слоисто-дождевые, Cu - кучевые, Cb - кучево-дождевые. Подробнее классификацию облаков см. в Атласе облаков (PDF).
T - Температура воздуха - температура, измеренная на высоте 2 м над землей.
Td - Температура точки росы - температура, при понижении до которой содержащийся в воздухе водяной пар достигнет насыщения.
f - Относительная влажность воздуха - влажноcть воздуха, измеренная на высоте 2 м над землей.
Te - Эффективная температура - температура, которую ощущает одетый по сезону человек в тени. Характеристика душности погоды. При расчете учитывается влияние влажности воздуха и скорости ветра на теплоощущения человека.
Tes - Эффективная температура на солнце - температура, которую ощущает человек, с поправкой на солнечный нагрев. Характеристика знойности погоды. Зависит от высоты солнца над горизонтом, облачности и скорости ветра. Ночью, в пасмурную погоду, а также при ветре 12 м/с и более поправка равна нулю.
P - Атмосферное давление - приведенное к уровню моря атмосферное давление.
Po - Атмосферное давление - измеренное на уровне метеостанции атмосферное давление.
Tmin - Минимальная температура - минимум температуры воздуха на высоте 2 м над землей.
Tmax - Максимальная температура - максимум температуры воздуха на высоте 2 м над землей.
R - Количество осадков - Количество выпавших осадков за период времени, мм. При наведении курсора мыши на число - период времени, за который выпало указанное количество осадков.
R24 - Количество осадков - Количество выпавших осадков за 24 часа, мм.
S - Снежный покров - Высота снежного покрова, см. При наведении курсора мыши на число - состояние снежного покрова и степень покрытия местности в баллах.